Location: Writing-on-Stone Provincial Park
(49.0825°N, 111.6163°W)
Time: 23:17:29
(UTC-06:00)

Amateur Radio Satellites - All Passes

Search period start: 24 May 2016 22:47
Search period end: 25 May 2016 22:47
Location: Writing-on-Stone Provincial Park, 49.0825°N, 111.6163°W

Satellite Date Start Highest point End Downlink Frequencies (MHz)
Time Altitude Azimuth
Cosmos 2499 24 May 22:47:58 22:54:22 35° 84° (E) 23:01:09 435.465 / 435.565
PRISM 24 May 22:48:36 22:52:28 36° 293° (WNW) 22:56:17 437.425
ISS 24 May 22:49:36 22:50:46 11° 135° (SE) 22:51:56 145.825
UNISAT 6 24 May 22:50:40 22:53:27 17° 90° (E) 22:56:14 437.425
TIGRISAT 24 May 22:59:08 23:02:12 19° 92° (E) 23:05:16 435.000
STRAND 1 24 May 22:59:29 23:01:42 13° 308° (NW) 23:03:56 437.568
ESTCUBE 1 24 May 23:04:14 23:08:12 31° 65° (ENE) 23:12:13 437.505/2401.250
UKube-1 24 May 23:05:57 23:08:52 18° 59° (ENE) 23:11:47 .
BEESAT 2 24 May 23:14:18 23:16:48 16° 247° (WSW) 23:19:17 435.950
DANDE 24 May 23:16:34 23:24:16 39° 64° (ENE) 23:31:49 436.750
AIST 2 24 May 23:18:10 23:22:17 56° 46° (NE) 23:26:22 435.215
ANTELSAT 24 May 23:31:07 23:35:10 40° 98° (E) 23:39:15 437.575/2403.000
50 SAT 24 May 23:32:43 23:36:07 39° 70° (ENE) 23:39:33 437.505
VELOX 1 24 May 23:39:26 23:43:42 47° 69° (ENE) 23:48:01 145.980
CUBEBUG 1 24 May 23:40:55 23:45:12 48° 70° (ENE) 23:49:30 437.445
DELFI C3 24 May 23:43:07 23:44:55 13° 272° (W) 23:46:42 145.870
DX 1 24 May 23:45:06 23:49:18 46° 69° (ENE) 23:53:31 434.975-435.025
CUSAT 1 24 May 23:52:34 00:00:42 88° 256° (WSW) 00:07:46 437.405
RS-15 25 May 00:10:27 00:21:33 39° 11° (N) 00:32:54 29.354- 29.394
AIST 1 25 May 00:12:07 00:14:17 13° 298° (WNW) 00:16:28
AISAT 25 May 00:14:53 00:19:22 78° 257° (WSW) 00:23:53 437.250
DUCHIFAT 1 25 May 00:14:57 00:18:12 21° 93° (E) 00:21:25 145.980
HUMSAT D 25 May 00:17:47 00:19:32 12° 272° (W) 00:21:15 437.325/437.525
SPROUT 25 May 00:22:27 00:26:37 51° 71° (ENE) 00:30:48 437.525
ISS 25 May 00:23:26 00:26:38 55° 153° (SSE) 00:29:51 145.825
UNISAT 6 25 May 00:26:21 00:30:33 57° 288° (WNW) 00:34:47 437.425
GONETS M04 25 May 00:32:04 00:40:21 43° 292° (WNW) 00:48:38
JAS-2 25 May 00:32:41 00:36:09 13° 78° (ENE) 00:39:29 435.910
TIGRISAT 25 May 00:35:03 00:39:11 50° 289° (WNW) 00:43:20 435.000
Cosmos 2499 25 May 00:40:04 00:47:09 54° 288° (WNW) 00:54:47 435.465 / 435.565
UKube-1 25 May 00:40:11 00:44:29 62° 258° (WSW) 00:48:49 .
ESTCUBE 1 25 May 00:40:52 00:44:58 34° 264° (W) 00:49:07 437.505/2401.250
BUGSAT 1 25 May 00:46:21 00:49:31 22° 93° (E) 00:52:39 437.445
POPSAT HIP 1 25 May 00:48:52 00:52:59 50° 100° (E) 00:57:03 437.405
QB50P1 25 May 00:49:34 00:53:42 52° 100° (E) 00:57:47 145.935-145.965
QB50P2 25 May 00:50:43 00:54:54 56° 101° (ESE) 00:59:01 145.880/145.840
POLYITAN 1 25 May 00:53:10 00:57:19 57° 101° (E) 01:01:27 437.675
AIST 2 25 May 00:57:19 01:00:27 21° 245° (WSW) 01:03:33 435.215
TISAT 1 25 May 00:58:28 01:02:22 38° 68° (ENE) 01:06:18 437.305
DANDE 25 May 00:59:21 01:07:36 64° 265° (W) 01:15:32 436.750
50 SAT 25 May 01:07:30 01:10:02 18° 268° (W) 01:12:36 437.505
ANTELSAT 25 May 01:08:16 01:11:44 24° 296° (WNW) 01:15:13 437.575/2403.000
NANOSAT C BR1 25 May 01:09:47 01:14:01 81° 104° (ESE) 01:18:12 145.865
VELOX 1 25 May 01:16:56 01:20:25 22° 267° (W) 01:23:55 145.980
CUBEBUG 1 25 May 01:18:22 01:21:45 21° 268° (W) 01:25:09 437.445
DX 1 25 May 01:22:20 01:25:43 22° 267° (W) 01:29:08 434.975-435.025
CUSAT 1 25 May 01:35:59 01:41:40 22° 282° (WNW) 01:46:54 437.405
Oscar 19 25 May 01:45:45 01:49:04 17° 89° (E) 01:52:21 437.125/150
SWISSCUBE 25 May 01:48:11 01:52:21 31° 64° (ENE) 01:56:33 437.505
SO-50 25 May 01:49:03 01:53:30 36° 119° (ESE) 01:57:58 436.795
DUCHIFAT 1 25 May 01:50:08 01:54:06 42° 291° (WNW) 01:58:01 145.980
ITUPSAT 1 25 May 01:52:39 01:56:49 31° 64° (ENE) 02:01:01 437.325
SPROUT 25 May 01:59:49 02:02:52 19° 269° (W) 02:05:58 437.525
ISS 25 May 01:59:54 02:03:07 56° 352° (N) 02:06:21 145.825
PHONESAT 2.4 25 May 02:11:22 02:13:31 17° 176° (S) 02:15:39 2401.200-2431.200
JAS-2 25 May 02:15:11 02:22:51 63° 100° (E) 02:29:47 435.910
BEESAT 25 May 02:17:45 02:22:20 51° 69° (ENE) 02:26:58 436.000
BUGSAT 1 25 May 02:21:16 02:25:05 39° 291° (WNW) 02:28:50 437.445
RS-15 25 May 02:24:29 02:36:43 67° 42° (NE) 02:49:02 29.354- 29.394
POPSAT HIP 1 25 May 02:25:24 02:28:27 20° 298° (WNW) 02:31:29 437.405
QB50P1 25 May 02:26:09 02:29:09 19° 299° (WNW) 02:32:08 145.935-145.965
QB50P2 25 May 02:27:26 02:30:19 18° 299° (WNW) 02:33:12 145.880/145.840
KKS-1 25 May 02:28:59 02:30:21 11° 54° (NE) 02:31:44 437.445
POLYITAN 1 25 May 02:29:55 02:32:44 18° 299° (WNW) 02:35:34 437.675
TISAT 1 25 May 02:34:39 02:38:08 25° 266° (W) 02:41:39 437.305
GONETS M04 25 May 02:37:34 02:40:13 11° 319° (NW) 02:42:52
Cosmos 2499 25 May 02:39:18 02:42:35 13° 314° (NW) 02:45:57 435.465 / 435.565
DANDE 25 May 02:44:20 02:48:55 16° 286° (WNW) 02:53:29 436.750
NANOSAT C BR1 25 May 02:47:06 02:49:10 14° 302° (WNW) 02:51:14 145.865
YUBILEINY 25 May 02:50:14 02:57:38 29° 61° (ENE) 03:05:00 435.215
STARS 25 May 03:11:35 03:14:07 15° 57° (ENE) 03:16:39 437.465
Gurwin Techsat 1B 25 May 03:22:20 03:27:31 50° 100° (E) 03:32:40 435.225
Oscar 19 25 May 03:23:48 03:28:59 76° 288° (WNW) 03:34:07 437.125/150
SWISSCUBE 25 May 03:25:41 03:30:04 37° 263° (W) 03:34:31 437.505
SO-50 25 May 03:29:13 03:33:57 45° 318° (NW) 03:38:39 436.795
ITUPSAT 1 25 May 03:30:10 03:34:35 38° 263° (W) 03:39:02 437.325
ISS 25 May 03:36:34 03:39:49 64° 12° (NNE) 03:43:04 145.825
AO-7 25 May 03:45:00 03:50:36 19° 87° (E) 03:56:10 29.400- 29.500
PHONESAT 2.4 25 May 03:47:54 03:49:35 14° 193° (SSW) 03:51:16 2401.200-2431.200
Cosmos 2504 25 May 03:49:40 03:55:36 21° 56° (ENE) 04:01:43 435.465 / 435.565
Cosmos 2491 25 May 03:50:51 03:57:40 26° 78° (ENE) 04:04:28 435.465 / 435.565
MOZHAYETS 4 25 May 03:55:37 03:59:57 46° 70° (ENE) 04:04:21
BEESAT 25 May 03:56:43 04:00:25 22° 268° (W) 04:04:09 436.000
ITAMSAT 1 25 May 03:58:46 04:03:44 43° 98° (E) 04:08:42 435.822/435.867
JAS-2 25 May 04:00:37 04:07:25 35° 302° (WNW) 04:13:43 435.910
KKS-1 25 May 04:01:41 04:06:08 73° 73° (ENE) 04:10:37 437.445
RS-15 25 May 04:37:27 04:48:59 50° 248° (WSW) 05:00:31 29.354- 29.394
STARS 25 May 04:45:30 04:49:56 78° 257° (WSW) 04:54:22 437.465
YUBILEINY 25 May 04:46:40 04:55:25 78° 264° (W) 05:04:10 435.215
Gurwin Techsat 1B 25 May 05:02:44 05:07:14 29° 299° (WNW) 05:11:44 435.225
Oscar 19 25 May 05:04:49 05:07:29 14° 307° (NW) 05:10:07 437.125/150
SO-50 25 May 05:12:28 05:15:37 17° 341° (NNW) 05:18:44 436.795
CUBESAT XI-V 25 May 05:13:01 05:17:17 36° 67° (ENE) 05:21:36 437.345
ISS 25 May 05:13:06 05:16:12 39° 211° (SSW) 05:19:16 145.825
HORYU 2 25 May 05:16:20 05:19:16 17° 91° (E) 05:22:14 437.375
MOZHAYETS 4 25 May 05:33:45 05:37:21 23° 268° (W) 05:41:01
AO-7 25 May 05:36:18 05:44:43 79° 108° (ESE) 05:53:06 29.400- 29.500
ITAMSAT 1 25 May 05:38:31 05:43:05 32° 297° (WNW) 05:47:40 435.822/435.867
KKS-1 25 May 05:40:46 05:43:13 14° 271° (W) 05:45:42 437.445
Cosmos 2504 25 May 05:42:06 05:50:23 78° 79° (E) 05:59:09 435.465 / 435.565
Cosmos 2491 25 May 05:44:39 05:53:31 82° 280° (W) 06:02:24 435.465 / 435.565
JAS-2 25 May 05:48:56 05:50:09 10° 325° (NW) 05:51:22 435.910
NOAA 15 25 May 06:12:08 06:14:59 14° 87° (E) 06:17:49 137.62
YUBILEINY 25 May 06:45:17 06:50:45 19° 287° (WNW) 06:56:14 435.215
CUBESAT XI-V 25 May 06:50:35 06:54:43 31° 265° (W) 06:58:54 437.345
HORYU 2 25 May 06:51:52 06:56:14 59° 289° (WNW) 07:00:35 437.375
CUTE-I 25 May 06:52:40 06:56:53 23° 92° (E) 07:01:04 437.470
RS-15 25 May 06:55:19 06:58:08 11° 271° (W) 07:00:59 29.354- 29.394
SO-50 25 May 06:55:48 06:58:03 13° 6° (N) 07:00:17 436.795
STRAND 1 25 May 06:59:36 07:04:21 41° 66° (ENE) 07:09:07 437.568
AO-85 25 May 07:14:20 07:19:13 35° 117° (ESE) 07:24:00 145.980
NOAA 18 25 May 07:20:15 07:25:30 44° 99° (E) 07:30:43 137.9125
AO-7 25 May 07:29:44 07:36:49 32° 310° (NW) 07:43:53 29.400- 29.500
Cosmos 2504 25 May 07:36:26 07:43:02 27° 279° (W) 07:49:56 435.465 / 435.565
BRITE-PL 25 May 07:37:17 07:42:36 63° 100° (E) 07:47:29 437.365/2234.400
DOVE 4 25 May 07:42:47 07:45:40 17° 88° (E) 07:48:26 437.250
Cubesat XI-IV 25 May 07:44:45 07:50:04 59° 101° (ESE) 07:55:21 437.490
Cosmos 2491 25 May 07:45:19 07:51:55 23° 305° (NW) 07:58:33 435.465 / 435.565
NOAA 15 25 May 07:50:10 07:55:32 90° 104° (ESE) 08:00:50 137.62
LilacSat-2 25 May 07:52:15 07:56:03 76° 104° (ESE) 07:59:49 437.200
HO-68 25 May 08:03:39 08:07:40 15° 85° (E) 08:11:40 435.675
PRISM 25 May 08:06:41 08:10:23 32° 66° (ENE) 08:14:06 437.425
GOMX 1 25 May 08:16:28 08:21:22 70° 101° (ESE) 08:25:53 467.674
CUTE-I 25 May 08:32:03 08:37:20 60° 290° (WNW) 08:42:35 437.470
Cosmos 2499 25 May 08:32:30 08:38:24 20° 55° (NE) 08:44:28 435.465 / 435.565
CINEMA 3 25 May 08:33:43 08:36:20 16° 89° (E) 08:38:57 145.822/145.860
AIST 1 25 May 08:34:42 08:38:37 31° 71° (ENE) 08:42:28
SO-50 25 May 08:36:19 08:40:14 24° 30° (NNE) 08:44:03 436.795
STRAND 1 25 May 08:39:06 08:43:37 31° 265° (W) 08:48:11 437.568
GONETS M04 25 May 08:39:51 08:47:32 33° 63° (ENE) 08:55:08
AUBIESAT-1 25 May 08:42:44 08:44:08 12° 96° (E) 08:45:30 437.475
COMPASS 1 25 May 08:43:48 08:44:48 11° 86° (E) 08:45:48 437.405
M-CUBED/EXP-1 PRIME 25 May 08:46:20 08:48:29 16° 98° (E) 08:50:37 437.505
AO-85 25 May 08:54:18 08:59:37 52° 316° (NW) 09:04:46 145.980
NOAA 18 25 May 09:01:12 09:06:03 33° 298° (WNW) 09:10:54 137.9125
BRITE-PL 25 May 09:16:30 09:20:35 23° 301° (WNW) 09:24:27 437.365/2234.400
CANX-2 25 May 09:17:23 09:21:33 48° 99° (E) 09:25:41 2200.000
DOVE 4 25 May 09:19:23 09:23:52 59° 288° (WNW) 09:28:06 437.250
AO-7 25 May 09:24:45 09:27:01 11° 335° (NNW) 09:29:17 29.400- 29.500
Cubesat XI-IV 25 May 09:25:29 09:29:47 25° 301° (WNW) 09:34:03 437.490
SEEDS 25 May 09:25:42 09:29:42 38° 97° (E) 09:33:40 437.485
LilacSat-2 25 May 09:28:20 09:29:50 12° 301° (WNW) 09:31:18 437.200
NOAA 15 25 May 09:31:13 09:34:37 17° 305° (NW) 09:37:59 137.62
Oscar 11 25 May 09:39:20 09:41:48 15° 89° (E) 09:44:15 145.826/435.025
CUBEBUG 2 25 May 09:40:55 09:44:24 25° 94° (E) 09:47:53 437.445
PRISM 25 May 09:42:05 09:45:42 29° 264° (W) 09:49:21 437.425
CUTE 1.7 + AOD 2 25 May 09:45:07 09:49:25 81° 104° (ESE) 09:53:42 437.475
ZACube-1 25 May 09:48:05 09:50:35 15° 90° (E) 09:53:05 437.345
HO-68 25 May 09:49:26 09:56:38 74° 105° (ESE) 10:03:49 435.675
UNISAT 6 25 May 09:53:14 09:56:48 25° 64° (ENE) 10:00:19 437.425
GOMX 1 25 May 09:55:35 09:58:52 18° 302° (WNW) 10:02:00 467.674
TIGRISAT 25 May 10:01:32 10:05:15 28° 65° (ENE) 10:08:55 435.000
CINEMA 3 25 May 10:09:46 10:13:55 55° 288° (WNW) 10:17:58 145.822/145.860
AIST 1 25 May 10:12:22 10:16:11 30° 270° (W) 10:19:56
CUTE-I 25 May 10:14:26 10:16:20 12° 310° (NW) 10:18:15 437.470
UWE-3 25 May 10:14:56 10:18:52 40° 98° (E) 10:22:49 435.000/436.395/437.385
QB50P2 25 May 10:15:35 10:16:08 10° 55° (NE) 10:16:41 145.880/145.840
AUBIESAT-1 25 May 10:15:44 10:19:01 49° 294° (WNW) 10:22:13 437.475
SO-50 25 May 10:16:33 10:21:20 85° 231° (SW) 10:25:56 436.795
COMPASS 1 25 May 10:16:44 10:20:59 87° 276° (W) 10:25:12 437.405
POLYITAN 1 25 May 10:17:50 10:18:34 10° 55° (NE) 10:19:17 437.675
M-CUBED/EXP-1 PRIME 25 May 10:20:11 10:23:18 35° 297° (WNW) 10:26:18 437.505
AAUSAT CUBESAT 2 25 May 10:21:57 10:26:11 86° 109° (ESE) 10:30:23 437.432
Cosmos 2499 25 May 10:24:38 10:33:05 74° 78° (ENE) 10:41:56 435.465 / 435.565
FUNcube-1 25 May 10:26:42 10:30:31 34° 96° (E) 10:34:22 145.935
NANOSAT C BR1 25 May 10:32:30 10:34:36 14° 58° (ENE) 10:36:43 145.865
PCSat 25 May 10:33:21 10:37:52 27° 110° (ESE) 10:42:24 145.827
ANTELSAT 25 May 10:33:40 10:37:57 59° 72° (ENE) 10:42:12 437.575/2403.000
GONETS M04 25 May 10:36:27 10:45:06 69° 266° (W) 10:53:41
AO-85 25 May 10:37:28 10:41:14 19° 338° (NNW) 10:44:53 145.980
O/OREOS (USA 219) 25 May 10:44:53 10:49:14 45° 109° (ESE) 10:53:35 437.305
JAS-2 25 May 10:50:19 10:53:58 14° 41° (NE) 10:57:42 435.910
CANX-2 25 May 10:53:54 10:57:07 21° 297° (WNW) 11:00:21 2200.000
SEEDS 25 May 11:01:45 11:05:14 25° 295° (WNW) 11:08:44 437.485
DUCHIFAT 1 25 May 11:10:34 11:14:10 28° 65° (ENE) 11:17:46 145.980
DELFI C3 25 May 11:13:57 11:17:59 64° 102° (ESE) 11:21:59 145.870
Oscar 11 25 May 11:14:04 11:18:24 67° 286° (WNW) 11:22:42 145.826/435.025
CUBEBUG 2 25 May 11:17:21 11:21:07 34° 292° (WNW) 11:24:53 437.445
CUSAT 1 25 May 11:19:43 11:23:41 17° 74° (ENE) 11:28:01 437.405
CUTE 1.7 + AOD 2 25 May 11:22:30 11:24:41 14° 302° (WNW) 11:26:52 437.475
ZACube-1 25 May 11:23:10 11:27:16 60° 288° (WNW) 11:31:25 437.345
UNISAT 6 25 May 11:29:14 11:33:22 40° 262° (W) 11:37:26 437.425
HO-68 25 May 11:37:51 11:43:48 29° 306° (NW) 11:49:44 435.675
TIGRISAT 25 May 11:37:52 11:41:52 35° 263° (W) 11:45:50 435.000
BUGSAT 1 25 May 11:39:42 11:43:17 28° 65° (ENE) 11:46:51 437.445
POPSAT HIP 1 25 May 11:44:56 11:49:08 64° 73° (ENE) 11:53:21 437.405
QB50P1 25 May 11:45:35 11:49:48 66° 73° (ENE) 11:54:01 145.935-145.965
QB50P2 25 May 11:46:56 11:51:10 72° 74° (ENE) 11:55:24 145.880/145.840
POLYITAN 1 25 May 11:49:23 11:53:37 73° 73° (ENE) 11:57:50 437.675
UWE-3 25 May 11:51:52 11:55:09 23° 296° (WNW) 11:58:28 435.000/436.395/437.385
HUMSAT D 25 May 11:53:59 11:58:08 78° 102° (ESE) 12:02:18 437.325/437.525
COMPASS 1 25 May 11:54:15 11:55:53 12° 303° (WNW) 11:57:31 437.405
SO-50 25 May 11:58:47 12:01:03 13° 251° (WSW) 12:03:16 436.795
AAUSAT CUBESAT 2 25 May 11:59:11 12:01:03 13° 302° (WNW) 12:02:55 437.432
AISAT 25 May 12:02:17 12:04:53 15° 89° (E) 12:07:28 437.250
FUNcube-1 25 May 12:03:12 12:06:42 26° 294° (WNW) 12:10:13 145.935
NANOSAT C BR1 25 May 12:05:31 12:09:45 82° 255° (WSW) 12:14:01 145.865
ANTELSAT 25 May 12:12:15 12:15:04 17° 270° (W) 12:17:51 437.575/2403.000
BEESAT 3 25 May 12:12:33 12:14:45 15° 112° (ESE) 12:16:58 437.485
PCSat 25 May 12:15:34 12:20:57 59° 311° (NW) 12:26:20 145.827
Cosmos 2499 25 May 12:18:34 12:25:34 30° 278° (W) 12:32:48 435.465 / 435.565
AO-85 25 May 12:21:11 12:23:41 13° 2° (N) 12:26:08 145.980
UKube-1 25 May 12:24:13 12:26:59 16° 90° (E) 12:29:42 .
O/OREOS (USA 219) 25 May 12:24:56 12:28:50 27° 309° (NW) 12:32:44 437.305
ESTCUBE 1 25 May 12:28:46 12:33:01 37° 97° (E) 12:37:15 437.505/2401.250
JAS-2 25 May 12:30:06 12:37:07 47° 63° (ENE) 12:44:33 435.910
DANDE 25 May 12:30:49 12:35:19 25° 80° (E) 12:40:45 436.750
50 SAT 25 May 12:31:41 12:34:57 28° 96° (E) 12:38:13 437.505
GONETS M04 25 May 12:35:34 12:40:12 16° 289° (WNW) 12:44:50
DUCHIFAT 1 25 May 12:45:56 12:49:46 34° 263° (W) 12:53:39 145.980
DELFI C3 25 May 12:50:00 12:52:24 15° 300° (WNW) 12:54:47 145.870
CUSAT 1 25 May 12:57:57 13:04:16 75° 98° (E) 13:12:01 437.405
AO-7 25 May 13:01:09 13:04:57 14° 31° (NNE) 13:08:46 29.400- 29.500
CUBEBUG 1 25 May 13:01:29 13:05:50 55° 100° (E) 13:10:06 437.445
VELOX 1 25 May 13:01:38 13:06:01 53° 100° (E) 13:10:19 145.980
DX 1 25 May 13:05:07 13:09:23 48° 100° (E) 13:13:35 434.975-435.025
Oscar 19 25 May 13:05:58 13:10:44 38° 65° (ENE) 13:15:31 437.125/150
BEESAT 2 25 May 13:08:48 13:12:18 30° 118° (ESE) 13:15:49 435.950
Gurwin Techsat 1B 25 May 13:09:36 13:13:27 21° 57° (ENE) 13:17:19 435.225
BUGSAT 1 25 May 13:14:44 13:18:34 34° 263° (W) 13:22:25 437.445
POPSAT HIP 1 25 May 13:22:56 13:25:22 15° 271° (W) 13:27:48 437.405
QB50P1 25 May 13:23:41 13:26:02 14° 271° (W) 13:28:23 145.935-145.965
QB50P2 25 May 13:25:23 13:27:28 13° 271° (W) 13:29:35 145.880/145.840
POLYITAN 1 25 May 13:27:55 13:29:56 13° 272° (W) 13:31:56 437.675
HUMSAT D 25 May 13:31:10 13:33:13 14° 301° (WNW) 13:35:18 437.325/437.525
AISAT 25 May 13:37:26 13:41:51 67° 288° (WNW) 13:46:13 437.250
SPROUT 25 May 13:40:04 13:44:18 56° 101° (E) 13:48:28 437.525
ITAMSAT 1 25 May 13:43:47 13:47:08 18° 55° (NE) 13:50:31 435.822/435.867
BEESAT 3 25 May 13:48:01 13:51:57 73° 311° (NW) 13:55:55 437.485
Cosmos 2491 25 May 13:54:22 13:59:50 17° 49° (NE) 14:05:15 435.465 / 435.565
UKube-1 25 May 13:59:09 14:03:26 61° 288° (WNW) 14:07:40 .
PCSat 25 May 14:01:45 14:05:30 18° 333° (NNW) 14:09:15 145.827
AO-85 25 May 14:02:08 14:06:01 22° 27° (NNE) 14:09:40 145.980
50 SAT 25 May 14:05:30 14:08:38 26° 293° (WNW) 14:11:45 437.505
ESTCUBE 1 25 May 14:05:48 14:09:44 29° 296° (WNW) 14:13:38 437.505/2401.250
DANDE 25 May 14:11:48 14:17:18 66° 287° (WNW) 14:24:34 436.750
TISAT 1 25 May 14:13:40 14:17:34 37° 97° (E) 14:21:26 437.305
JAS-2 25 May 14:15:03 14:22:06 48° 264° (W) 14:29:39 435.910
CUBEBUG 1 25 May 14:38:34 14:41:46 20° 299° (WNW) 14:44:56 437.445
VELOX 1 25 May 14:38:50 14:42:09 21° 299° (WNW) 14:45:27 145.980
CUSAT 1 25 May 14:41:38 14:47:19 28° 302° (WNW) 14:53:51 437.405
DX 1 25 May 14:41:55 14:45:17 22° 298° (WNW) 14:48:38 434.975-435.025
Oscar 19 25 May 14:45:19 14:50:04 35° 264° (W) 14:54:52 437.125/150
BEESAT 2 25 May 14:46:20 14:50:04 38° 318° (NW) 14:53:50 435.950
Gurwin Techsat 1B 25 May 14:47:35 14:52:53 73° 257° (WSW) 14:58:14 435.225
AO-7 25 May 14:48:00 14:55:34 41° 55° (NE) 15:03:10 29.400- 29.500
AIST 2 25 May 14:57:50 15:01:24 29° 118° (ESE) 15:05:00 435.215
AISAT 25 May 15:16:43 15:17:29 10° 307° (NW) 15:18:14 437.250
SPROUT 25 May 15:16:54 15:19:52 19° 299° (WNW) 15:22:49 437.525
ITAMSAT 1 25 May 15:20:47 15:25:58 85° 253° (WSW) 15:31:11 435.822/435.867
SWISSCUBE 25 May 15:21:14 15:25:47 41° 98° (E) 15:30:18 437.505
ITUPSAT 1 25 May 15:26:02 15:30:35 40° 98° (E) 15:35:07 437.325
BEESAT 3 25 May 15:27:45 15:30:20 16° 332° (NNW) 15:32:55 437.485
AO-85 25 May 15:42:26 15:47:18 82° 50° (NE) 15:51:43 145.980
PCSat 25 May 15:49:26 15:51:13 11° 360° (N) 15:52:59 145.827
TISAT 1 25 May 15:49:37 15:53:05 25° 296° (WNW) 15:56:30 437.305
Cosmos 2491 25 May 15:50:04 15:58:48 64° 75° (ENE) 16:07:27 435.465 / 435.565
BEESAT 25 May 15:51:08 15:55:55 69° 102° (ESE) 16:00:42 436.000
KKS-1 25 May 15:51:45 15:52:07 10° 86° (E) 15:52:28 437.445
YUBILEINY 25 May 15:58:04 16:04:54 27° 79° (E) 16:11:43 435.215
DANDE 25 May 15:58:12 16:02:02 16° 313° (NW) 16:06:22 436.750
HORYU 2 25 May 16:17:57 16:21:41 27° 64° (ENE) 16:25:24 437.375
BEESAT 2 25 May 16:27:25 16:29:01 12° 340° (NNW) 16:30:36 435.950
Gurwin Techsat 1B 25 May 16:32:12 16:33:47 11° 276° (W) 16:35:22 435.225
STARS 25 May 16:32:13 16:34:35 14° 89° (E) 16:36:54 437.465
AIST 2 25 May 16:35:50 16:39:46 41° 317° (NW) 16:43:44 435.215
AO-7 25 May 16:39:57 16:48:06 59° 257° (WSW) 16:56:20 29.400- 29.500
Cosmos 2504 25 May 16:40:54 16:41:23 10° 68° (ENE) 16:41:52 435.465 / 435.565
CUTE-I 25 May 16:43:14 16:44:30 11° 48° (NE) 16:45:45 437.470
RS-15 25 May 16:57:07 17:05:02 22° 98° (E) 17:13:11 29.354- 29.394
SWISSCUBE 25 May 16:59:19 17:03:26 29° 297° (WNW) 17:07:33 437.505
ITAMSAT 1 25 May 17:03:52 17:06:14 13° 274° (W) 17:08:38 435.822/435.867
ITUPSAT 1 25 May 17:04:09 17:08:18 30° 296° (WNW) 17:12:27 437.325
NOAA 18 25 May 17:12:00 17:16:08 23° 57° (ENE) 17:20:17 137.9125
BRITE-PL 25 May 17:14:36 17:18:41 21° 58° (ENE) 17:22:46 437.365/2234.400
MOZHAYETS 4 25 May 17:23:11 17:27:48 63° 101° (ESE) 17:32:23
AO-85 25 May 17:24:19 17:27:03 15° 251° (WSW) 17:29:37 145.980
KKS-1 25 May 17:24:57 17:29:25 83° 105° (ESE) 17:33:51 437.445
BEESAT 25 May 17:29:55 17:33:14 19° 302° (WNW) 17:36:32 436.000
Cubesat XI-IV 25 May 17:32:26 17:36:40 25° 59° (ENE) 17:40:56 437.490
PCSat 25 May 17:33:14 17:36:56 18° 26° (NNE) 17:40:38 145.827
NOAA 15 25 May 17:35:22 17:40:09 35° 64° (ENE) 17:44:57 137.62
Cosmos 2491 25 May 17:47:34 17:55:08 34° 278° (W) 18:02:38 435.465 / 435.565
GOMX 1 25 May 17:51:18 17:55:17 21° 59° (ENE) 17:59:12 467.674
YUBILEINY 25 May 17:52:05 18:00:47 78° 282° (WNW) 18:09:33 435.215
HORYU 2 25 May 17:53:59 17:58:07 38° 262° (W) 18:02:15 437.375
STARS 25 May 18:07:04 18:11:27 71° 287° (WNW) 18:15:47 437.465
AIST 2 25 May 18:17:19 18:19:20 13° 339° (NNW) 18:21:20 435.215
CUTE-I 25 May 18:18:17 18:23:26 54° 68° (ENE) 18:28:37 437.470
Cosmos 2504 25 May 18:25:48 18:32:47 55° 91° (E) 18:40:11 435.465 / 435.565
HO-68 25 May 18:37:07 18:42:14 22° 49° (NE) 18:47:21 435.675
LilacSat-2 25 May 18:37:52 18:41:38 66° 75° (ENE) 18:45:25 437.200
AO-7 25 May 18:39:35 18:42:45 12° 278° (W) 18:45:56 29.400- 29.500
CUBESAT XI-V 25 May 18:42:13 18:46:50 50° 99° (E) 18:51:25 437.345
BEESAT 3 25 May 18:47:43 18:49:12 12° 20° (NNE) 18:50:39 437.485
BRITE-PL 25 May 18:50:50 18:56:29 82° 256° (WSW) 19:02:15 437.365/2234.400
NOAA 18 25 May 18:50:53 18:56:19 70° 256° (WSW) 19:01:48 137.9125
DOVE 4 25 May 18:50:55 18:55:28 31° 65° (ENE) 18:59:52 437.250
MOZHAYETS 4 25 May 19:01:17 19:04:32 19° 300° (WNW) 19:07:48
KKS-1 25 May 19:02:58 19:05:23 15° 303° (WNW) 19:07:49 437.445
RS-15 25 May 19:03:57 19:15:18 76° 122° (ESE) 19:27:19 29.354- 29.394
CUTE 1.7 + AOD 2 25 May 19:08:33 19:10:26 13° 57° (ENE) 19:12:19 437.475
Cubesat XI-IV 25 May 19:11:09 19:16:23 59° 259° (WSW) 19:21:40 437.490
O/OREOS (USA 219) 25 May 19:11:46 19:15:35 26° 50° (NE) 19:19:22 437.305
NOAA 15 25 May 19:14:56 19:19:53 39° 262° (W) 19:24:53 137.62
PCSat 25 May 19:16:09 19:21:32 57° 50° (NE) 19:26:52 145.827
GOMX 1 25 May 19:27:19 19:32:50 76° 258° (WSW) 19:38:14 467.674
AUBIESAT-1 25 May 19:30:57 19:34:46 40° 64° (ENE) 19:38:22 437.475
M-CUBED/EXP-1 PRIME 25 May 19:35:23 19:39:28 54° 66° (ENE) 19:43:15 437.505
COMPASS 1 25 May 19:38:11 19:40:17 14° 58° (ENE) 19:42:22 437.405
CINEMA 3 25 May 19:38:31 19:42:29 28° 65° (ENE) 19:46:19 145.822/145.860
AAUSAT CUBESAT 2 25 May 19:43:16 19:45:04 13° 58° (ENE) 19:46:53 437.432
BEESAT 2 25 May 19:45:33 19:48:11 17° 28° (NNE) 19:50:48 435.950
STARS 25 May 19:46:01 19:47:01 11° 306° (NW) 19:48:00 437.465
YUBILEINY 25 May 19:52:59 19:59:14 21° 306° (NW) 20:05:33 435.215
CUTE-I 25 May 19:59:30 20:03:48 25° 268° (W) 20:08:09 437.470
CANX-2 25 May 20:13:51 20:17:57 56° 72° (ENE) 20:22:07 2200.000
LilacSat-2 25 May 20:14:54 20:16:23 12° 272° (W) 20:17:53 437.200
Cosmos 2504 25 May 20:20:04 20:26:35 35° 295° (WNW) 20:33:29 435.465 / 435.565
CUBESAT XI-V 25 May 20:20:11 20:23:56 24° 298° (WNW) 20:27:40 437.345
SEEDS 25 May 20:21:10 20:25:07 44° 70° (ENE) 20:29:08 437.485
HO-68 25 May 20:21:49 20:28:58 81° 71° (ENE) 20:36:10 435.675
BEESAT 3 25 May 20:24:16 20:27:59 37° 42° (NE) 20:31:41 437.485
DOVE 4 25 May 20:28:03 20:33:01 43° 262° (W) 20:37:51 437.250
BRITE-PL 25 May 20:32:43 20:35:47 15° 276° (W) 20:38:54 437.365/2234.400
NOAA 18 25 May 20:36:36 20:37:59 11° 275° (W) 20:39:23 137.9125
Oscar 11 25 May 20:37:53 20:40:59 20° 62° (ENE) 20:44:07 145.826/435.025
CUTE 1.7 + AOD 2 25 May 20:41:26 20:45:39 86° 257° (WSW) 20:49:55 437.475
CUBEBUG 2 25 May 20:42:40 20:46:40 36° 68° (ENE) 20:50:36 437.445
STRAND 1 25 May 20:44:29 20:49:38 65° 102° (ESE) 20:54:44 437.568
ZACube-1 25 May 20:47:42 20:50:53 21° 63° (ENE) 20:54:03 437.345
O/OREOS (USA 219) 25 May 20:50:54 20:55:12 45° 251° (WSW) 20:59:27 437.305
PCSat 25 May 21:00:02 21:04:38 28° 249° (WSW) 21:09:12 145.827
AUBIESAT-1 25 May 21:06:08 21:09:23 22° 259° (W) 21:12:28 437.475
GOMX 1 25 May 21:09:24 21:11:44 13° 276° (W) 21:14:02 467.674
AIST 1 25 May 21:09:43 21:12:15 15° 83° (E) 21:14:47
COMPASS 1 25 May 21:11:08 21:15:16 78° 257° (WSW) 21:19:28 437.405
M-CUBED/EXP-1 PRIME 25 May 21:11:27 21:14:14 17° 261° (W) 21:16:55 437.505
CINEMA 3 25 May 21:15:00 21:19:29 41° 262° (W) 21:23:49 145.822/145.860
UWE-3 25 May 21:15:36 21:19:48 54° 72° (ENE) 21:23:56 435.000/436.395/437.385
AAUSAT CUBESAT 2 25 May 21:15:48 21:19:56 86° 258° (WSW) 21:24:08 437.432
HUMSAT D 25 May 21:16:35 21:18:04 12° 57° (ENE) 21:19:32 437.325/437.525
RS-15 25 May 21:17:31 21:28:46 50° 331° (NNW) 21:40:35 29.354- 29.394
PRISM 25 May 21:19:11 21:22:49 28° 95° (E) 21:26:27 437.425
BEESAT 2 25 May 21:22:43 21:26:44 72° 50° (NE) 21:30:42 435.950
DANDE 25 May 21:22:44 21:24:51 11° 39° (NE) 21:26:58 436.750
FUNcube-1 25 May 21:25:58 21:30:00 44° 70° (ENE) 21:33:59 145.935
AIST 2 25 May 21:37:02 21:39:50 17° 28° (NNE) 21:42:39 435.215
CUSAT 1 25 May 21:47:03 21:52:56 22° 52° (NE) 21:58:25 437.405
GONETS M04 25 May 21:47:11 21:54:30 31° 81° (E) 22:01:48
CANX-2 25 May 21:51:29 21:54:11 17° 270° (W) 21:56:56 2200.000
SEEDS 25 May 21:57:54 22:01:03 21° 268° (W) 22:04:14 437.485
BEESAT 3 25 May 22:02:07 22:05:37 30° 242° (WSW) 22:09:06 437.485
DELFI C3 25 May 22:03:34 22:07:28 64° 74° (ENE) 22:11:27 145.870
HO-68 25 May 22:12:02 22:17:30 23° 270° (W) 22:23:00 435.675
Oscar 11 25 May 22:12:35 22:16:47 53° 261° (W) 22:21:01 145.826/435.025
CUBEBUG 2 25 May 22:19:41 22:23:23 26° 266° (W) 22:27:01 437.445
ZACube-1 25 May 22:22:51 22:26:56 46° 261° (W) 22:30:59 437.345
STRAND 1 25 May 22:24:29 22:28:22 22° 301° (WNW) 22:32:16 437.568
CUBEBUG 1 25 May 22:28:24 22:29:53 12° 55° (NE) 22:31:21 437.445
VELOX 1 25 May 22:29:36 22:31:16 12° 55° (NE) 22:32:57 145.980
DX 1 25 May 22:32:07 22:33:10 11° 54° (NE) 22:34:14 434.975-435.025
